Location: Bakov nad Jizerou
(50.4784°N, 14.9394°E)
Time: 15:27:42
(UTC+00:00)

COBE Rocket - Pass Details

Date: 16 June 2021
Orbit: 679 x 782 km, 97.1° (Epoch: 02 August)

Event Time Altitude Azimuth Distance (km) Brightness Sun altitude
Exits shadow 22:12:19 25° 168° (SSE) 1,514 4.9 -15.4°
Maximum altitude 22:15:22 87° 257° (WSW) 761 3.9 -15.5°
Drops below altitude 10° 22:20:22 10° 347° (NNW) 2,255 7.8 -15.6°
Sets 22:22:38 0° 348° (NNW) 3,166 9.1 -15.7°
